Vorticity
-6 -4 -3 -1 1 3 6 11 16 21 22 19 14 9 6 6 7 8 8 9 9 9 8 6 5 4 4 4 5 5 6 7 7 8 8 8 9 9 9 9 9 10 10 11 12 12 13 13 13 13 12 12 11 10 9 8 7 7 6 6 6 6 6 7 7 7 8 9 9 9 10 10 10 11 11 11 11 10 10 10 10 10 10 10 11 11
1 2 3 4 5 9 14 20 22 21 17 12 8 6 6 7 8 9 9 9 8 7 5 4 4 4 4 5 6 6 7 7 7 8 8 8 8 8 8 9 9 10 11 11 12 12 12 12 12 11 10 10 9 8 7 7 6 6 6 6 6 7 7 8 8 9 9 10 10 10 10 10 10 10 10 10 10 10 10 10 11 11 12 13 14 16
6 6 6 8 11 15 20 22 19 14 9 7 6 6 7 8 9 9 9 7 6 4 3 3 4 4 5 6 6 7 7 7 7 7 7 7 7 8 8 9 9 10 11 11 12 12 11 11 10 10 9 8 8 7 7 6 6 6 6 7 7 8 8 9 9 9 10 10 10 10 10 10 10 10 10 10 11 11 12 13 14 15 16 18 19 21
7 7 8 12 16 19 20 16 11 7 5 6 7 8 9 9 9 8 6 4 3 3 3 4 4 5 6 6 6 7 7 6 6 6 7 7 7 8 8 9 10 10 11 11 11 11 11 10 10 9 9 8 7 7 7 6 6 7 7 7 8 8 9 9 9 9 10 10 10 10 10 10 11 11 12 13 13 14 16 17 19 20 22 23 24 26
7 9 13 16 17 16 13 9 6 6 6 8 9 9 10 9 7 5 3 2 2 3 4 4 5 6 6 6 6 6 6 6 6 6 6 7 7 8 8 9 10 10 11 11 11 11 11 10 10 9 8 8 8 7 7 7 7 7 7 8 8 8 9 9 9 10 10 10 10 11 12 13 13 14 16 17 18 20 21 23 24 26 27 28 29 30
11 14 16 16 14 11 7 6 6 7 8 9 10 9 8 6 4 3 2 2 3 3 4 5 5 6 6 6 6 5 5 5 6 6 7 7 7 8 8 9 10 11 11 11 11 11 11 10 10 9 9 8 8 7 7 7 7 7 7 8 8 9 9 10 10 11 11 12 13 14 15 16 18 19 20 22 24 25 27 28 29 30 30 31 31 32
15 16 15 12 9 7 6 7 7 8 9 9 9 7 5 3 2 2 2 3 3 4 4 5 5 6 6 6 5 5 5 6 6 7 7 7 8 8 8 9 10 11 11 11 11 11 10 10 10 9 8 8 8 7 7 7 7 7 8 8 9 10 10 11 12 13 14 16 17 18 20 22 23 25 26 28 29 30 31 32 32 32 32 32 32 32
15 13 10 8 6 6 7 8 9 9 9 8 6 4 3 2 2 2 3 3 4 4 5 5 5 6 6 6 6 6 6 6 7 7 7 8 8 8 9 10 11 11 11 11 11 10 10 10 9 9 8 8 7 7 7 7 8 8 9 10 11 12 13 14 16 17 19 20 22 24 26 27 29 30 31 32 32 33 33 33 32 32 32 32 32 31
11 9 7 6 6 7 8 9 9 8 7 5 3 2 2 2 3 4 4 4 4 5 5 5 6 6 6 6 6 6 7 7 8 7 7 7 8 8 9 10 11 11 11 11 10 10 9 9 8 8 8 7 7 7 7 8 9 9 10 12 13 15 17 19 21 22 24 26 28 30 31 32 33 34 34 34 33 33 32 32 32 31 31 30 30 29
8 6 6 7 8 8 9 9 8 6 4 2 1 1 2 3 4 4 4 5 5 5 6 7 6 6 5 7 7 8 8 8 8 8 7 7 8 9 10 11 11 11 11 10 10 9 8 8 8 7 7 7 7 8 8 9 10 12 14 16 18 20 22 24 26 28 30 32 33 34 35 35 35 34 34 33 32 32 31 30 30 30 29 28 27 26
6 6 7 8 9 9 9 7 5 3 1 1 1 1 2 3 3 4 4 5 6 6 7 8 7 7 5 6 7 8 8 8 8 8 9 9 9 10 11 11 11 11 10 9 9 8 8 7 7 7 7 7 8 9 10 12 14 16 18 21 24 26 28 30 32 34 35 36 36 36 35 34 34 32 32 31 30 30 29 28 27 26 25 24 22 21
6 7 8 9 9 8 6 4 2 1 1 1 2 3 3 3 3 4 4 5 6 6 7 7 8 9 8 6 6 7 9 8 8 8 8 10 10 11 11 11 11 10 9 9 8 8 8 7 7 7 8 8 10 12 14 16 19 22 25 27 30 32 34 35 36 36 37 36 35 34 33 32 31 30 29 28 27 27 26 25 23 22 20 19 18 16
8 9 10 9 7 5 3 2 1 1 1 2 2 3 3 3 4 4 5 6 7 7 6 6 7 9 10 9 8 7 8 9 9 9 9 10 10 11 10 10 10 9 8 8 8 8 8 7 7 8 9 11 13 16 19 22 25 28 31 33 34 36 37 37 37 36 35 34 32 31 30 28 28 27 26 25 24 23 22 20 18 17 16 15 14 13
9 10 9 7 4 2 1 1 1 1 1 1 2 2 3 3 4 4 5 7 7 8 7 7 7 8 8 10 10 9 9 9 9 10 11 11 11 10 8 8 8 8 8 7 8 8 8 8 8 10 12 15 19 22 26 29 31 34 35 37 37 38 37 36 35 34 32 30 28 27 26 25 24 23 22 21 20 18 17 16 15 14 14 14 14 14
10 8 6 4 2 0 0 1 1 1 1 1 2 2 3 3 4 5 6 7 7 7 8 8 9 9 9 10 10 10 10 10 10 10 10 10 10 9 7 7 8 8 9 8 8 8 8 9 10 13 17 22 26 29 31 34 36 37 38 38 38 36 35 33 31 29 27 26 24 23 22 21 20 19 18 18 17 16 16 16 16 16 16 17 17 18
7 5 3 1 0 0 0 0 1 1 1 2 2 2 3 4 5 5 6 7 7 7 8 8 8 9 11 11 11 11 10 10 11 10 8 7 8 8 7 7 7 8 9 9 8 8 9 12 16 20 24 28 32 34 36 38 38 38 38 36 34 32 30 28 26 24 22 21 20 19 18 18 18 17 18 18 18 18 18 19 20 20 21 22 23 24
4 2 1 0 0 0 1 0 0 1 1 2 2 2 3 4 5 5 6 7 7 8 8 8 8 8 8 10 13 14 12 10 10 9 8 7 6 7 8 8 8 8 8 8 9 10 12 17 22 27 32 34 36 38 39 39 38 37 35 32 30 27 25 23 21 20 18 17 17 17 17 18 18 19 20 21 22 22 23 24 24 25 26 27 28 28
2 0 0 0 0 0 1 1 1 1 1 2 2 3 3 4 5 6 7 7 8 8 8 9 10 10 7 8 10 11 11 10 8 7 8 7 6 7 8 9 8 7 7 9 11 15 19 24 29 33 36 38 39 39 38 37 35 32 30 27 24 22 20 18 17 16 16 16 17 18 19 20 22 22 23 24 25 25 26 26 27 27 28 28 28 28
0 0 0 0 0 0 0 0 1 1 1 2 2 3 4 5 6 7 8 8 8 8 8 8 10 11 11 10 8 8 9 8 7 7 8 7 7 7 8 8 7 8 9 13 17 22 27 32 35 38 39 39 39 38 36 33 30 27 24 22 20 18 16 16 15 16 17 18 20 21 22 23 24 24 25 25 25 25 25 25 25 24 24 24 25 25
0 0 0 0 0 0 0 0 0 1 1 1 2 3 4 6 7 7 8 8 9 9 9 9 10 10 11 10 9 7 8 7 8 8 9 7 7 7 7 7 7 9 13 19 25 30 33 36 38 40 40 38 36 34 31 28 25 22 20 18 16 16 15 16 17 18 20 22 23 23 24 24 24 24 24 24 23 22 21 21 20 20 20 20 21 22
0 0 0 0 0 0 0 0 1 1 0 1 2 4 5 6 7 8 9 8 8 9 10 11 12 11 10 9 8 6 6 7 8 8 7 7 7 7 7 7 9 13 20 27 32 36 38 39 40 39 37 35 32 30 26 23 21 18 17 16 15 15 16 18 20 21 22 23 23 23 22 22 22 21 21 20 19 18 17 17 17 17 17 18 18 19
0 0 0 0 0 -0 0 0 0 0 0 1 3 4 6 7 8 8 8 9 9 10 11 11 10 9 8 8 7 6 6 8 8 6 5 6 7 8 8 9 14 21 30 34 36 38 40 40 38 36 34 31 28 25 23 20 18 16 15 15 16 17 19 20 22 22 23 22 22 21 20 20 19 18 18 17 16 16 15 15 15 16 16 16 17 17
0 0 1 0 0 -0 -0 0 0 0 1 2 3 5 6 7 8 8 8 9 9 9 9 9 7 7 8 8 7 7 8 8 7 6 6 7 8 9 10 14 22 30 38 38 38 38 39 38 35 31 29 27 24 22 20 18 16 16 16 17 18 20 21 22 22 22 22 21 20 19 18 17 17 16 16 15 15 15 15 15 15 15 16 16 16 16
0 0 1 1 0 0 -0 -0 0 1 1 2 4 5 7 8 9 9 9 9 9 8 7 6 7 8 9 8 8 8 8 7 6 6 7 8 9 12 16 23 30 36 41 40 38 36 35 34 31 28 25 24 22 20 18 17 17 17 18 19 20 21 22 21 21 20 19 18 17 17 16 16 15 15 15 14 15 15 15 15 15 15 16 16 16 16
0 0 1 0 0 0 -0 -0 0 1 2 3 5 6 8 9 10 10 10 10 9 8 7 7 8 9 8 7 7 8 7 7 6 6 7 9 13 19 27 32 36 38 39 38 36 34 32 30 27 24 23 21 20 18 18 18 18 19 20 20 21 21 20 20 19 18 17 16 16 15 15 14 14 14 14 14 14 14 14 14 15 15 15 15 16 16
0 0 0 0 0 -0 -0 -0 0 1 2 4 6 7 8 9 9 9 10 10 9 8 7 8 9 8 6 6 7 7 6 6 7 8 9 11 17 26 35 38 39 38 36 34 32 30 29 27 24 22 20 19 18 18 18 19 20 21 21 20 20 19 19 18 17 16 15 15 15 14 14 14 13 13 13 13 13 13 13 13 13 13 13 14 14 15
0 0 0 0 -0 -0 -0 0 1 2 3 5 7 8 9 9 9 9 10 9 8 7 8 8 7 6 6 7 8 7 5 6 8 10 13 17 25 34 38 38 38 37 33 32 29 27 25 24 22 20 19 18 19 19 20 21 21 20 20 18 18 17 16 16 15 14 14 14 14 14 13 13 12 12 11 11 11 11 11 11 11 11 11 11 11 12
0 0 -0 -0 -0 -0 -0 0 1 3 4 6 8 9 9 10 10 10 10 7 6 7 9 8 6 5 5 7 7 6 5 7 10 13 16 25 35 41 37 36 36 35 31 29 26 24 23 22 21 20 20 20 21 22 22 21 20 18 17 16 15 14 14 13 13 13 13 13 13 13 12 12 11 10 10 9 9 8 8 8 8 8 8 8 9 9
-0 -0 -0 -0 -0 -0 0 1 2 4 6 7 8 9 10 10 10 9 7 5 6 7 8 7 6 6 5 6 5 5 6 11 14 17 20 33 42 44 34 34 34 33 29 26 24 22 21 20 20 20 21 22 23 23 23 21 18 16 14 13 12 12 12 12 12 12 12 12 12 11 11 10 9 9 8 7 7 7 6 6 6 6 6 6 7 7
-0 -0 -0 -0 0 0 1 2 4 5 6 8 9 9 9 10 11 9 6 6 7 7 6 6 6 6 6 5 5 7 10 17 20 23 27 40 44 40 31 33 32 30 26 25 23 21 20 19 19 20 21 22 23 23 22 19 16 14 12 11 10 10 10 10 10 11 11 11 10 9 9 8 7 7 6 6 6 6 5 5 5 5 5 6 6 6
-0 -0 0 1 1 2 2 3 4 6 7 8 9 9 9 10 10 9 8 8 7 7 5 5 5 6 6 6 6 9 14 20 25 29 34 43 42 35 30 32 30 27 25 25 24 23 21 20 20 20 20 21 21 20 19 17 15 13 12 11 10 10 10 10 9 9 9 9 8 8 7 7 6 6 6 6 5 5 5 5 5 6 6 6 6 6
-0 0 0 1 2 3 3 4 5 6 7 9 9 9 9 9 9 9 8 7 6 5 5 5 6 6 7 7 9 12 17 23 28 33 38 41 38 34 32 30 27 25 24 24 24 23 22 22 21 20 19 18 17 17 16 15 14 13 11 10 10 10 9 9 9 8 8 8 7 7 6 6 6 6 6 6 6 6 6 6 6 6 6 6 7 7
0 1 1 2 3 4 4 5 6 7 8 9 9 10 9 9 9 8 7 6 5 5 6 6 7 7 7 8 12 18 26 31 34 36 37 38 36 33 31 29 27 24 22 22 21 21 20 20 20 20 17 15 14 13 13 13 12 11 10 10 10 9 9 8 8 7 7 7 7 7 7 7 7 7 7 7 7 7 7 7 7 7 7 7 7 7
1 1 2 3 4 5 5 6 7 8 9 9 10 10 9 9 8 7 6 5 5 6 7 7 7 6 6 9 15 23 34 38 38 36 36 38 36 33 30 28 26 24 22 21 20 19 17 17 17 16 14 13 11 10 10 10 10 10 9 9 9 8 8 8 7 7 7 7 7 7 7 7 8 8 8 8 8 8 8 8 8 9 8 8 8 8
2 2 3 4 5 5 6 7 8 9 10 10 10 9 9 8 7 6 5 5 6 7 8 8 7 7 7 11 18 28 38 39 38 36 35 37 35 32 29 27 26 24 22 20 19 17 15 15 14 13 12 11 10 9 9 9 9 9 8 8 8 8 8 8 7 7 8 8 8 8 9 9 9 9 9 9 9 9 9 9 10 10 10 10 10 9
3 3 4 5 5 6 7 7 8 10 10 10 10 9 8 7 6 5 5 6 6 7 8 8 8 9 13 20 27 34 37 36 35 34 35 34 33 31 28 26 24 22 20 19 17 15 13 13 12 11 10 10 9 9 9 9 8 8 8 9 9 9 9 9 8 9 9 9 10 10 10 10 10 9 9 9 9 9 9 9 10 10 10 11 11 10
4 4 5 5 6 6 7 8 10 10 10 10 9 8 7 6 6 5 6 6 7 7 7 7 8 12 19 30 38 42 40 38 35 33 32 31 30 28 25 24 22 20 17 16 14 12 11 11 10 10 9 9 8 8 9 9 9 8 9 9 10 10 11 10 10 10 10 11 11 11 11 10 10 10 10 9 9 9 9 9 9 9 10 10 11 11
4 5 6 6 7 7 8 10 11 11 10 9 7 7 6 5 5 5 6 7 7 7 7 7 10 16 24 35 42 45 42 38 35 32 29 27 26 24 22 20 18 15 13 13 11 10 9 9 9 9 9 8 8 8 8 9 9 9 9 10 11 11 12 12 12 11 11 11 11 11 11 11 10 10 10 9 9 9 9 9 9 9 8 9 9 10
5 6 6 7 8 8 10 11 10 10 9 8 7 5 5 5 5 6 7 7 7 7 6 8 13 21 30 38 42 43 41 37 34 30 27 24 21 19 17 14 13 12 11 10 10 9 8 9 9 9 9 8 9 9 9 9 9 10 10 10 10 10 11 12 12 11 11 11 11 11 11 10 10 10 10 10 9 9 9 9 9 8 8 7 7 8
5 6 7 8 8 9 10 10 9 8 7 6 6 5 5 5 6 7 8 7 7 6 6 10 17 26 35 41 44 44 40 35 31 28 24 20 17 14 11 9 9 9 9 9 9 9 8 8 9 9 9 10 10 10 11 11 11 11 11 10 9 9 10 10 10 10 10 10 10 10 10 10 10 10 10 10 10 10 10 9 9 9 8 8 7 7
6 7 8 8 9 10 11 10 9 7 7 6 6 6 7 7 7 7 7 7 6 6 7 13 22 31 41 46 48 46 40 33 29 26 22 18 14 11 8 6 6 7 8 8 9 9 9 9 10 10 10 11 11 11 11 11 12 12 11 10 10 10 10 9 9 9 8 8 8 8 8 8 8 9 9 10 10 10 10 10 9 9 9 9 9 8
7 8 8 8 9 9 10 9 8 8 7 7 7 7 7 7 7 7 6 6 6 7 10 18 26 35 43 49 51 48 40 32 27 23 20 16 13 10 7 6 6 6 7 8 9 10 11 12 12 12 12 13 13 12 11 11 11 11 11 12 12 11 10 9 8 8 8 8 8 8 7 7 7 7 8 9 9 10 10 10 10 10 10 10 10 10
8 8 8 8 9 9 8 8 8 8 7 8 8 8 7 7 7 7 6 6 6 9 15 26 34 41 44 50 51 47 36 28 23 19 17 14 12 10 8 7 7 7 7 9 10 11 12 13 13 14 14 14 14 13 11 10 10 10 10 11 12 12 12 11 11 10 10 10 10 9 9 8 8 7 8 8 9 10 11 11 11 11 11 12 12 12
7 8 8 9 9 9 9 10 9 8 7 8 8 7 7 7 7 7 6 6 8 13 22 33 40 46 50 50 46 40 31 22 16 13 12 11 10 9 8 8 8 8 9 10 11 12 13 13 13 13 14 14 13 12 10 10 9 9 9 10 10 12 13 13 13 13 14 14 14 14 13 13 12 11 11 11 12 12 13 14 14 14 13 13 13 13
7 8 9 9 9 10 11 10 9 8 8 8 7 7 7 7 7 6 6 6 11 20 31 38 43 47 50 45 38 29 21 16 11 8 7 7 7 8 9 9 10 11 11 11 12 13 14 14 13 12 11 10 10 9 9 8 8 8 8 9 10 11 12 13 14 16 16 17 18 18 19 19 18 17 16 16 15 15 16 18 18 18 17 17 16 16
8 9 10 10 10 11 10 8 7 7 8 8 8 7 7 6 6 6 6 9 16 27 38 44 48 48 45 37 28 20 14 10 8 7 6 6 7 8 10 11 13 14 15 14 14 13 12 12 12 11 9 7 6 6 6 7 7 8 9 9 10 11 11 12 13 14 16 18 19 20 22 22 22 21 20 19 18 18 18 18 19 19 19 18 17 16
9 10 10 10 10 10 9 8 8 8 8 8 8 7 6 6 5 5 7 13 23 34 43 48 50 48 39 29 21 14 10 7 6 6 6 7 8 9 10 11 13 14 15 15 14 13 11 10 9 8 6 5 4 4 4 5 6 7 8 9 10 10 9 9 10 11 13 14 16 18 20 20 20 19 19 19 18 18 17 16 16 15 15 14 13 12
10 10 10 10 10 10 9 8 8 8 8 7 7 7 6 5 5 6 9 18 30 41 48 49 47 41 31 22 15 10 7 6 6 6 7 7 8 9 10 10 10 11 11 11 11 10 9 8 7 6 5 4 4 3 3 4 4 5 6 7 7 7 6 6 6 7 8 9 11 14 16 16 16 16 17 16 15 14 13 13 11 10 10 9 9 9
10 11 11 10 10 10 9 8 8 8 8 7 6 6 6 5 5 8 13 24 36 47 52 48 42 33 23 15 10 7 6 6 6 6 7 8 8 9 9 9 9 9 8 7 6 5 5 5 6 6 6 5 5 5 5 4 4 4 4 4 5 4 4 3 4 4 6 7 9 11 12 13 13 15 15 14 13 12 11 10 10 9 9 10 10 11
11 11 11 10 10 10 9 8 8 8 7 7 6 5 4 4 6 11 19 32 44 52 53 46 36 26 16 11 8 6 6 6 6 7 8 8 9 9 9 9 9 9 7 6 4 4 3 4 4 6 7 7 7 7 7 6 6 5 4 4 4 5 5 5 5 6 7 9 10 11 13 13 14 14 14 14 13 13 12 12 12 12 13 14 15 17
11 11 11 11 10 10 8 8 7 7 6 6 6 5 4 5 8 15 26 40 50 54 50 40 29 19 11 8 6 6 6 7 7 8 9 9 10 10 11 11 11 10 9 8 7 5 5 4 5 6 7 8 8 8 8 8 8 8 8 8 8 9 10 11 12 12 13 14 15 16 17 17 17 17 16 16 16 15 15 16 17 17 18 19 20 21
Height
5696 5695 5694 5692 5691 5690 5688 5687 5686 5684 5682 5681 5679 5677 5675 5673 5671 5670 5667 5665 5662 5660 5657 5655 5652 5649 5646 5643 5640 5637 5634 5630 5627 5623 5620 5616 5612 5608 5604 5600 5596 5592 5587 5583 5579 5575 5571 5566 5562 5558 5554 5549 5545 5541 5537 5532 5528 5524 5520 5516 5511 5507 5503 5499 5495 5491 5486 5482 5478 5474 5470 5465 5461 5457 5454 5450 5446 5442 5438 5435 5431 5428 5424 5421 5417 5414
5694 5692 5691 5690 5689 5688 5686 5685 5684 5682 5680 5678 5676 5675 5673 5671 5669 5667 5665 5662 5660 5657 5654 5651 5649 5646 5643 5640 5637 5633 5630 5626 5623 5619 5616 5611 5607 5604 5600 5596 5591 5587 5583 5579 5575 5570 5566 5561 5557 5553 5549 5544 5540 5536 5531 5527 5522 5518 5514 5510 5505 5501 5497 5493 5488 5484 5480 5476 5471 5467 5463 5459 5455 5451 5446 5442 5439 5435 5431 5427 5424 5420 5416 5413 5410 5406
5692 5691 5689 5688 5687 5686 5684 5683 5681 5679 5677 5676 5674 5672 5671 5669 5667 5665 5662 5660 5657 5654 5651 5649 5646 5643 5640 5637 5633 5630 5626 5623 5619 5615 5611 5607 5603 5599 5596 5591 5587 5583 5579 5574 5570 5566 5561 5556 5552 5548 5543 5539 5535 5530 5526 5521 5516 5512 5508 5503 5499 5495 5491 5486 5481 5477 5473 5469 5465 5460 5456 5452 5448 5444 5440 5436 5431 5428 5424 5420 5416 5413 5409 5405 5402 5399
5690 5689 5688 5687 5685 5684 5682 5680 5678 5676 5675 5673 5672 5670 5669 5667 5665 5662 5660 5657 5654 5651 5649 5646 5643 5640 5636 5633 5630 5626 5623 5619 5615 5611 5607 5603 5599 5595 5591 5587 5583 5578 5574 5569 5565 5560 5556 5551 5547 5542 5538 5533 5529 5524 5520 5515 5511 5506 5501 5497 5493 5488 5484 5480 5475 5471 5466 5462 5458 5453 5449 5445 5441 5436 5432 5428 5424 5421 5417 5413 5409 5405 5402 5398 5395 5392
5688 5687 5686 5685 5683 5681 5680 5678 5676 5674 5673 5671 5670 5668 5666 5664 5662 5659 5657 5654 5651 5649 5646 5643 5640 5637 5633 5630 5626 5622 5618 5615 5611 5607 5603 5599 5595 5591 5586 5582 5578 5573 5569 5564 5559 5555 5550 5546 5541 5536 5532 5527 5523 5518 5514 5509 5505 5500 5496 5491 5486 5482 5478 5473 5469 5464 5460 5455 5451 5446 5442 5438 5434 5429 5425 5421 5417 5413 5410 5406 5402 5399 5395 5391 5388 5385
5687 5686 5684 5682 5681 5679 5677 5676 5674 5672 5671 5669 5667 5666 5663 5661 5659 5656 5654 5651 5649 5646 5643 5640 5637 5633 5630 5626 5622 5618 5614 5610 5606 5602 5598 5594 5590 5586 5581 5577 5572 5568 5563 5559 5554 5549 5545 5540 5536 5531 5526 5522 5517 5513 5508 5504 5499 5494 5490 5485 5480 5476 5471 5466 5462 5457 5452 5448 5443 5439 5435 5431 5426 5422 5418 5414 5410 5406 5403 5399 5396 5392 5389 5386 5382 5379
5685 5683 5681 5680 5678 5677 5675 5674 5672 5671 5669 5667 5665 5663 5661 5658 5656 5654 5651 5649 5646 5643 5640 5636 5633 5629 5626 5621 5617 5613 5610 5606 5602 5598 5594 5590 5585 5581 5576 5572 5567 5562 5558 5553 5548 5544 5539 5535 5530 5526 5521 5516 5512 5507 5503 5498 5493 5488 5484 5479 5474 5469 5464 5459 5455 5450 5445 5441 5436 5432 5427 5423 5419 5415 5411 5407 5403 5400 5396 5393 5389 5386 5383 5380 5377 5374
5682 5681 5679 5678 5676 5675 5673 5671 5670 5668 5666 5664 5662 5660 5658 5656 5653 5651 5648 5645 5642 5639 5636 5632 5628 5625 5621 5617 5613 5609 5605 5601 5597 5593 5589 5584 5580 5576 5571 5567 5562 5557 5553 5548 5543 5539 5534 5529 5525 5520 5516 5511 5506 5501 5497 5492 5487 5482 5477 5472 5467 5462 5457 5452 5447 5442 5438 5433 5429 5424 5420 5416 5412 5408 5405 5401 5397 5394 5390 5387 5384 5381 5378 5375 5372 5370
5679 5678 5677 5676 5674 5673 5671 5670 5668 5666 5664 5662 5660 5658 5656 5653 5650 5647 5645 5642 5639 5635 5632 5628 5624 5620 5616 5612 5609 5605 5601 5596 5592 5588 5584 5580 5575 5571 5566 5562 5557 5553 5548 5543 5538 5533 5529 5524 5520 5515 5510 5506 5501 5496 5491 5486 5481 5475 5470 5465 5460 5455 5450 5445 5440 5435 5431 5426 5422 5418 5414 5410 5406 5402 5399 5395 5392 5388 5385 5382 5379 5376 5374 5371 5368 5366
5677 5676 5675 5673 5672 5671 5669 5667 5666 5664 5662 5660 5658 5656 5653 5651 5647 5644 5641 5639 5635 5631 5628 5624 5620 5616 5611 5607 5604 5601 5597 5592 5588 5584 5580 5576 5571 5567 5562 5557 5553 5548 5543 5538 5533 5528 5524 5519 5514 5509 5505 5500 5495 5489 5484 5479 5474 5468 5463 5458 5452 5447 5442 5438 5433 5428 5424 5420 5416 5411 5408 5404 5400 5397 5393 5390 5387 5384 5381 5378 5375 5372 5370 5367 5365 5362
5675 5674 5673 5671 5670 5669 5667 5666 5664 5661 5660 5658 5656 5653 5651 5648 5645 5642 5638 5635 5632 5628 5624 5620 5616 5613 5608 5604 5600 5596 5592 5588 5584 5579 5575 5571 5567 5563 5558 5553 5548 5544 5539 5534 5528 5523 5519 5514 5509 5503 5498 5493 5488 5483 5477 5472 5466 5461 5456 5451 5445 5440 5436 5431 5426 5422 5418 5414 5410 5406 5402 5399 5396 5392 5389 5386 5383 5380 5377 5374 5371 5369 5366 5364 5361 5359
5673 5672 5671 5670 5668 5667 5665 5664 5662 5660 5658 5656 5653 5651 5648 5646 5643 5640 5636 5632 5628 5625 5621 5617 5613 5609 5605 5601 5596 5592 5588 5584 5580 5575 5571 5567 5562 5558 5553 5548 5543 5539 5534 5529 5523 5518 5514 5509 5503 5497 5492 5487 5481 5476 5470 5465 5459 5454 5449 5443 5438 5434 5429 5425 5420 5416 5412 5409 5405 5401 5398 5395 5391 5388 5385 5382 5379 5376 5374 5371 5369 5366 5363 5361 5359 5356
5671 5670 5669 5668 5666 5665 5663 5661 5660 5658 5656 5653 5651 5648 5645 5643 5640 5637 5633 5629 5626 5622 5618 5614 5609 5605 5601 5597 5593 5589 5584 5580 5575 5571 5567 5562 5558 5554 5549 5544 5539 5534 5530 5524 5518 5513 5508 5503 5497 5491 5486 5480 5475 5469 5463 5458 5452 5447 5442 5437 5432 5428 5423 5419 5415 5411 5408 5404 5401 5398 5395 5391 5388 5385 5382 5379 5376 5374 5371 5368 5366 5363 5361 5358 5356 5354
5670 5669 5667 5666 5665 5663 5661 5660 5658 5656 5653 5651 5649 5646 5643 5640 5637 5634 5630 5626 5622 5618 5615 5610 5606 5602 5598 5593 5589 5584 5580 5575 5571 5566 5562 5558 5554 5550 5546 5540 5534 5529 5525 5520 5514 5507 5501 5496 5491 5485 5479 5473 5468 5462 5456 5451 5445 5440 5436 5431 5426 5422 5418 5415 5411 5408 5404 5401 5398 5395 5391 5389 5386 5383 5380 5377 5374 5371 5368 5366 5363 5361 5358 5356 5353 5351
5668 5667 5666 5664 5663 5661 5660 5658 5656 5653 5651 5649 5646 5643 5640 5637 5634 5631 5627 5622 5619 5615 5611 5606 5602 5598 5594 5591 5587 5582 5576 5571 5566 5562 5558 5553 5549 5545 5541 5536 5530 5524 5519 5515 5509 5502 5496 5490 5485 5479 5473 5467 5461 5456 5450 5445 5440 5435 5430 5426 5422 5418 5415 5411 5408 5405 5401 5398 5395 5392 5389 5386 5383 5380 5377 5374 5371 5369 5366 5364 5361 5358 5356 5353 5351 5349
5666 5665 5664 5662 5661 5660 5658 5656 5653 5651 5649 5646 5644 5641 5637 5634 5630 5627 5623 5619 5615 5611 5607 5603 5599 5594 5590 5586 5583 5579 5575 5568 5563 5558 5554 5550 5545 5540 5536 5532 5526 5519 5514 5508 5503 5496 5490 5484 5478 5472 5466 5461 5455 5449 5444 5439 5434 5430 5426 5422 5418 5415 5411 5408 5405 5402 5399 5396 5393 5390 5387 5384 5381 5378 5375 5372 5370 5367 5364 5361 5359 5356 5354 5351 5349 5346
5665 5664 5662 5661 5659 5657 5656 5654 5651 5649 5646 5643 5641 5638 5634 5631 5627 5623 5619 5616 5612 5608 5604 5600 5596 5592 5587 5582 5577 5574 5571 5565 5560 5554 5550 5545 5540 5536 5531 5527 5521 5515 5509 5503 5497 5491 5484 5478 5472 5466 5461 5455 5449 5443 5439 5434 5430 5426 5422 5419 5415 5412 5409 5406 5403 5400 5397 5394 5391 5388 5385 5382 5379 5376 5373 5371 5368 5365 5362 5360 5357 5354 5352 5349 5346 5344
5664 5662 5661 5659 5657 5656 5654 5651 5649 5646 5644 5641 5637 5634 5631 5627 5624 5620 5616 5612 5609 5605 5600 5596 5592 5588 5584 5579 5573 5569 5565 5561 5556 5550 5545 5540 5535 5530 5525 5521 5516 5510 5504 5498 5492 5485 5479 5472 5466 5461 5455 5449 5444 5439 5435 5430 5426 5423 5419 5416 5413 5410 5407 5404 5401 5398 5395 5392 5389 5386 5383 5380 5377 5374 5371 5369 5366 5364 5361 5358 5356 5353 5350 5348 5345 5342
5662 5661 5659 5657 5655 5653 5651 5649 5646 5644 5641 5637 5634 5631 5627 5623 5620 5616 5613 5609 5605 5601 5597 5593 5588 5583 5579 5575 5570 5565 5561 5557 5551 5546 5541 5536 5530 5525 5520 5515 5510 5504 5498 5492 5486 5480 5473 5466 5461 5455 5450 5445 5440 5436 5431 5427 5424 5421 5417 5414 5411 5408 5405 5402 5399 5396 5393 5390 5387 5384 5381 5378 5376 5373 5370 5368 5365 5362 5360 5357 5355 5352 5349 5347 5344 5341
5661 5659 5657 5655 5653 5651 5649 5647 5644 5641 5638 5634 5631 5627 5624 5620 5617 5613 5610 5606 5602 5597 5593 5589 5584 5580 5575 5571 5566 5561 5556 5552 5547 5541 5535 5530 5525 5520 5515 5510 5504 5498 5492 5486 5480 5473 5467 5462 5456 5451 5446 5441 5437 5433 5429 5426 5422 5419 5416 5413 5410 5407 5404 5401 5398 5395 5392 5389 5386 5383 5380 5377 5375 5372 5370 5367 5365 5362 5359 5356 5354 5351 5349 5346 5343 5341
5659 5657 5656 5654 5651 5649 5646 5644 5641 5638 5635 5631 5628 5624 5621 5617 5614 5610 5606 5603 5598 5594 5590 5585 5580 5576 5571 5566 5561 5556 5551 5547 5542 5536 5530 5525 5519 5514 5509 5504 5499 5493 5487 5480 5474 5467 5462 5457 5452 5447 5443 5438 5435 5431 5427 5424 5421 5417 5415 5411 5409 5406 5402 5399 5396 5393 5391 5387 5385 5382 5379 5377 5374 5372 5369 5367 5364 5361 5359 5356 5354 5351 5348 5346 5343 5341
5657 5655 5653 5651 5649 5647 5644 5641 5638 5635 5632 5628 5625 5622 5618 5615 5611 5607 5603 5599 5595 5590 5586 5581 5576 5572 5567 5562 5556 5551 5546 5542 5537 5532 5526 5521 5514 5508 5502 5497 5492 5486 5481 5475 5469 5463 5457 5452 5448 5444 5440 5436 5432 5429 5426 5423 5420 5416 5413 5411 5407 5404 5401 5398 5396 5392 5390 5387 5384 5382 5379 5377 5374 5372 5369 5366 5364 5361 5359 5356 5353 5351 5348 5346 5343 5341
5655 5653 5651 5649 5646 5644 5641 5638 5635 5632 5629 5626 5623 5619 5616 5612 5608 5604 5599 5595 5591 5586 5581 5577 5573 5568 5564 5559 5553 5548 5542 5538 5533 5527 5522 5516 5510 5504 5497 5491 5486 5479 5473 5469 5465 5459 5453 5448 5444 5441 5437 5434 5431 5428 5425 5421 5418 5416 5412 5409 5406 5403 5401 5398 5395 5392 5390 5387 5385 5382 5379 5377 5374 5372 5369 5367 5364 5361 5359 5356 5354 5351 5348 5346 5343 5341
5653 5651 5649 5646 5644 5641 5638 5635 5632 5629 5626 5623 5620 5616 5612 5608 5604 5600 5596 5591 5587 5582 5578 5574 5569 5564 5560 5555 5550 5544 5539 5534 5529 5524 5518 5511 5504 5498 5492 5486 5481 5474 5468 5463 5460 5456 5451 5446 5442 5439 5436 5432 5429 5426 5423 5421 5418 5415 5411 5409 5406 5403 5400 5397 5395 5392 5390 5387 5385 5382 5380 5377 5375 5372 5370 5367 5364 5362 5359 5357 5354 5351 5349 5346 5344 5341
5651 5649 5646 5644 5641 5638 5636 5633 5630 5627 5624 5621 5617 5613 5609 5605 5601 5596 5592 5588 5583 5579 5574 5570 5565 5561 5556 5551 5546 5541 5535 5529 5524 5520 5514 5507 5500 5493 5486 5481 5476 5470 5464 5459 5456 5452 5448 5444 5440 5437 5434 5431 5428 5425 5422 5420 5417 5414 5411 5408 5406 5403 5400 5398 5395 5393 5390 5388 5385 5383 5380 5378 5375 5372 5370 5367 5365 5362 5360 5357 5355 5352 5350 5347 5344 5342
5649 5646 5644 5641 5639 5636 5633 5631 5628 5625 5621 5618 5614 5610 5606 5602 5597 5593 5589 5585 5581 5576 5571 5566 5561 5556 5551 5547 5543 5537 5531 5525 5519 5514 5509 5503 5496 5489 5482 5476 5471 5466 5461 5456 5452 5450 5446 5442 5439 5436 5433 5430 5427 5425 5422 5419 5416 5413 5411 5408 5405 5403 5401 5398 5396 5393 5391 5388 5386 5383 5381 5378 5376 5373 5371 5368 5366 5363 5361 5358 5356 5353 5350 5348 5345 5343
5647 5645 5642 5639 5637 5634 5631 5629 5626 5622 5619 5615 5611 5607 5603 5599 5594 5590 5586 5582 5578 5573 5568 5563 5558 5553 5547 5543 5538 5533 5528 5521 5515 5508 5503 5497 5491 5485 5479 5473 5468 5463 5458 5453 5450 5447 5446 5442 5438 5435 5432 5430 5427 5424 5421 5418 5416 5413 5410 5408 5406 5403 5401 5399 5396 5394 5391 5389 5386 5384 5381 5379 5376 5374 5371 5369 5366 5364 5361 5359 5356 5354 5351 5349 5346 5343
5645 5642 5640 5637 5635 5632 5629 5626 5623 5620 5616 5612 5608 5604 5600 5596 5592 5587 5582 5578 5574 5569 5564 5560 5556 5551 5545 5540 5534 5530 5525 5518 5512 5505 5498 5492 5486 5481 5476 5471 5466 5461 5457 5452 5448 5445 5444 5442 5438 5435 5432 5430 5427 5424 5421 5418 5416 5413 5411 5408 5406 5404 5401 5399 5397 5395 5392 5390 5387 5385 5382 5380 5377 5375 5372 5370 5367 5365 5362 5360 5357 5355 5352 5350 5347 5345
5643 5641 5638 5636 5633 5630 5627 5624 5620 5617 5613 5609 5605 5601 5597 5593 5589 5585 5580 5575 5571 5566 5561 5556 5552 5548 5543 5537 5531 5526 5520 5515 5509 5502 5495 5488 5482 5476 5472 5468 5464 5461 5457 5452 5447 5444 5442 5441 5438 5435 5432 5430 5427 5425 5422 5419 5416 5414 5411 5409 5406 5404 5402 5400 5398 5395 5393 5391 5388 5386 5383 5381 5378 5376 5373 5371 5368 5366 5363 5361 5358 5356 5353 5351 5348 5346
5641 5639 5636 5633 5631 5628 5625 5621 5618 5614 5610 5606 5602 5598 5594 5590 5586 5582 5577 5572 5568 5563 5558 5554 5549 5544 5540 5534 5528 5521 5515 5509 5503 5498 5492 5486 5480 5474 5470 5466 5461 5459 5457 5454 5449 5445 5441 5440 5437 5435 5432 5430 5427 5425 5422 5420 5417 5415 5412 5410 5407 5405 5403 5401 5398 5396 5394 5391 5389 5387 5384 5382 5379 5377 5374 5371 5369 5366 5364 5361 5359 5357 5354 5352 5349 5347
5639 5637 5634 5631 5629 5626 5622 5619 5615 5611 5608 5604 5600 5596 5592 5587 5583 5578 5574 5569 5565 5561 5556 5551 5546 5541 5536 5531 5525 5519 5512 5505 5499 5493 5488 5483 5477 5472 5469 5465 5461 5457 5455 5453 5451 5446 5443 5440 5437 5435 5432 5430 5428 5426 5423 5421 5419 5416 5414 5411 5409 5406 5404 5401 5399 5397 5395 5392 5390 5387 5385 5383 5380 5378 5375 5372 5370 5367 5365 5362 5360 5357 5355 5352 5350 5348
5637 5635 5632 5630 5626 5623 5620 5616 5613 5609 5606 5601 5597 5593 5589 5585 5580 5576 5571 5567 5562 5558 5553 5548 5543 5537 5532 5527 5522 5516 5510 5503 5496 5490 5485 5481 5476 5471 5467 5464 5461 5457 5454 5452 5450 5447 5444 5441 5439 5436 5433 5431 5429 5427 5425 5422 5420 5417 5415 5413 5410 5408 5405 5403 5400 5398 5395 5393 5391 5388 5386 5383 5381 5378 5376 5373 5371 5368 5366 5363 5361 5358 5356 5353 5351 5348
5636 5633 5630 5627 5624 5621 5618 5614 5611 5607 5603 5599 5595 5591 5586 5582 5577 5573 5569 5565 5560 5556 5551 5546 5541 5534 5528 5522 5517 5512 5506 5501 5495 5489 5484 5479 5475 5471 5467 5464 5461 5458 5455 5452 5450 5448 5445 5442 5440 5437 5435 5432 5430 5428 5426 5423 5421 5419 5416 5414 5411 5409 5406 5404 5401 5399 5396 5394 5391 5389 5386 5384 5381 5379 5376 5374 5371 5369 5366 5364 5361 5359 5356 5354 5351 5349
5634 5631 5628 5626 5622 5619 5616 5612 5608 5605 5601 5596 5592 5588 5584 5579 5575 5571 5567 5562 5558 5553 5548 5544 5538 5532 5526 5520 5513 5507 5501 5496 5492 5487 5482 5478 5474 5471 5467 5464 5461 5459 5456 5453 5451 5448 5446 5444 5441 5439 5436 5434 5431 5429 5427 5424 5422 5420 5417 5415 5412 5410 5408 5405 5402 5400 5397 5395 5392 5390 5387 5384 5382 5379 5377 5374 5372 5369 5367 5364 5362 5359 5357 5354 5352 5349
5632 5629 5626 5624 5620 5617 5613 5610 5606 5602 5598 5594 5590 5586 5581 5577 5573 5569 5565 5560 5556 5551 5546 5541 5535 5530 5524 5518 5511 5505 5499 5493 5489 5485 5481 5477 5474 5471 5468 5465 5463 5460 5457 5455 5452 5449 5447 5445 5442 5440 5438 5435 5433 5431 5428 5425 5423 5421 5418 5416 5413 5411 5408 5406 5403 5401 5398 5396 5393 5390 5387 5385 5382 5380 5377 5374 5372 5369 5367 5364 5362 5360 5357 5355 5352 5350
5630 5627 5625 5621 5618 5615 5611 5607 5604 5600 5596 5591 5588 5584 5580 5576 5571 5567 5563 5558 5554 5549 5543 5538 5532 5526 5521 5515 5509 5504 5498 5492 5487 5483 5480 5477 5474 5471 5468 5466 5464 5461 5459 5456 5454 5451 5448 5446 5444 5441 5439 5437 5434 5432 5429 5426 5424 5421 5419 5416 5414 5412 5409 5406 5404 5401 5399 5396 5393 5391 5388 5385 5382 5380 5377 5374 5371 5369 5366 5364 5361 5359 5357 5355 5352 5350
5628 5626 5622 5619 5616 5613 5609 5605 5601 5597 5594 5590 5586 5582 5578 5574 5570 5566 5561 5556 5551 5546 5541 5535 5530 5524 5518 5512 5506 5501 5496 5491 5487 5483 5480 5477 5474 5472 5470 5467 5465 5463 5461 5458 5455 5453 5450 5448 5446 5443 5441 5438 5436 5433 5431 5428 5425 5422 5420 5417 5415 5412 5410 5407 5404 5402 5399 5396 5394 5391 5388 5386 5383 5380 5377 5375 5372 5369 5366 5364 5361 5359 5356 5354 5352 5350
5626 5623 5620 5617 5614 5610 5607 5603 5599 5596 5592 5588 5584 5580 5576 5572 5568 5564 5560 5555 5549 5544 5539 5533 5527 5521 5516 5510 5504 5499 5495 5491 5486 5483 5480 5478 5475 5473 5471 5469 5467 5464 5462 5460 5457 5455 5452 5449 5447 5444 5442 5440 5437 5434 5432 5429 5426 5424 5421 5418 5416 5413 5410 5407 5405 5402 5400 5397 5394 5391 5389 5386 5383 5380 5378 5375 5372 5369 5366 5364 5361 5359 5356 5354 5351 5349
5624 5621 5618 5615 5611 5608 5605 5601 5598 5594 5590 5587 5583 5579 5575 5571 5567 5562 5558 5553 5548 5543 5537 5532 5526 5521 5515 5509 5504 5498 5494 5490 5487 5484 5481 5479 5477 5475 5472 5470 5468 5466 5464 5461 5459 5456 5454 5451 5448 5446 5443 5441 5438 5436 5433 5431 5428 5425 5422 5419 5416 5414 5411 5408 5405 5402 5400 5397 5395 5392 5389 5386 5383 5381 5378 5375 5372 5370 5367 5364 5361 5359 5356 5354 5351 5349
5622 5619 5616 5613 5610 5606 5603 5600 5596 5592 5589 5585 5581 5578 5574 5570 5566 5561 5556 5552 5547 5542 5537 5532 5526 5521 5516 5510 5505 5500 5495 5491 5488 5486 5483 5481 5479 5476 5474 5472 5470 5467 5465 5463 5460 5458 5456 5453 5450 5447 5445 5442 5439 5437 5434 5432 5429 5426 5423 5420 5417 5414 5411 5408 5406 5403 5400 5397 5395 5392 5389 5386 5383 5381 5378 5375 5372 5370 5367 5365 5362 5359 5357 5354 5352 5350
5620 5617 5614 5611 5608 5604 5601 5598 5595 5591 5587 5584 5580 5576 5572 5568 5564 5559 5555 5550 5546 5541 5536 5531 5526 5521 5515 5511 5506 5502 5497 5493 5491 5488 5486 5483 5481 5478 5476 5474 5471 5469 5466 5464 5462 5459 5457 5454 5451 5449 5446 5443 5441 5438 5435 5432 5430 5427 5424 5421 5418 5415 5412 5409 5406 5403 5400 5397 5394 5391 5388 5386 5383 5380 5377 5375 5372 5370 5367 5364 5362 5360 5357 5355 5352 5350
5618 5616 5612 5609 5606 5603 5599 5596 5593 5590 5586 5582 5579 5575 5571 5566 5562 5558 5553 5549 5544 5539 5534 5529 5524 5520 5515 5510 5506 5502 5499 5496 5493 5490 5488 5485 5483 5481 5478 5475 5473 5470 5468 5466 5463 5461 5458 5456 5453 5450 5447 5445 5441 5439 5436 5433 5430 5427 5425 5422 5419 5417 5414 5410 5407 5403 5401 5397 5394 5391 5388 5385 5382 5380 5377 5374 5372 5369 5367 5364 5361 5359 5357 5355 5352 5350
5617 5614 5611 5608 5605 5601 5598 5595 5591 5588 5584 5581 5577 5573 5569 5565 5561 5556 5552 5547 5542 5537 5532 5527 5522 5518 5514 5510 5506 5503 5500 5497 5494 5492 5490 5487 5485 5482 5480 5477 5475 5472 5470 5467 5465 5462 5459 5456 5454 5451 5448 5446 5443 5439 5436 5433 5431 5428 5425 5423 5420 5417 5414 5411 5408 5405 5401 5398 5395 5392 5389 5386 5383 5380 5376 5374 5371 5369 5366 5364 5361 5359 5356 5354 5352 5350
5615 5612 5609 5606 5603 5600 5597 5594 5590 5587 5583 5579 5576 5571 5567 5563 5559 5555 5550 5545 5540 5536 5531 5525 5520 5516 5512 5509 5506 5503 5500 5498 5495 5493 5491 5489 5486 5484 5482 5479 5476 5474 5471 5469 5466 5463 5461 5458 5455 5452 5449 5446 5443 5440 5437 5434 5431 5429 5426 5423 5420 5417 5414 5412 5409 5406 5403 5400 5396 5393 5390 5387 5384 5381 5377 5374 5371 5369 5366 5364 5361 5359 5356 5354 5352 5350
5614 5611 5608 5605 5602 5599 5596 5592 5589 5585 5582 5578 5574 5570 5566 5562 5557 5553 5549 5544 5539 5534 5529 5524 5520 5515 5511 5508 5506 5503 5501 5499 5496 5494 5492 5490 5488 5486 5483 5481 5478 5475 5472 5470 5467 5464 5461 5459 5456 5453 5450 5447 5444 5441 5438 5436 5433 5430 5427 5424 5421 5418 5415 5412 5409 5406 5403 5400 5397 5394 5391 5387 5384 5381 5378 5375 5372 5369 5366 5364 5361 5359 5357 5354 5352 5350
5612 5609 5606 5604 5601 5598 5595 5591 5588 5584 5581 5577 5573 5569 5565 5561 5556 5552 5547 5543 5538 5533 5527 5523 5519 5516 5512 5509 5506 5504 5502 5500 5498 5496 5493 5491 5489 5486 5484 5481 5479 5476 5473 5471 5468 5465 5462 5460 5457 5454 5451 5448 5445 5442 5439 5436 5434 5431 5428 5425 5422 5419 5416 5412 5409 5406 5403 5400 5397 5394 5391 5388 5385 5382 5379 5376 5373 5370 5366 5364 5361 5359 5356 5354 5352 5349
5611 5608 5605 5602 5599 5596 5593 5590 5586 5583 5579 5576 5572 5568 5564 5560 5556 5551 5546 5541 5537 5532 5527 5523 5519 5516 5513 5510 5507 5505 5503 5501 5499 5497 5494 5492 5489 5487 5484 5481 5479 5476 5474 5471 5469 5466 5463 5461 5458 5455 5452 5449 5446 5443 5440 5437 5434 5431 5428 5426 5423 5419 5416 5413 5410 5406 5403 5400 5396 5393 5390 5387 5385 5382 5379 5376 5372 5369 5366 5363 5361 5358 5356 5353 5351 5349
5610 5607 5604 5601 5598 5595 5592 5589 5586 5582 5578 5575 5571 5567 5563 5559 5555 5550 5545 5540 5536 5531 5527 5523 5519 5516 5514 5511 5509 5507 5505 5502 5500 5498 5496 5493 5490 5488 5485 5482 5480 5477 5475 5472 5470 5467 5464 5461 5459 5456 5453 5450 5447 5444 5441 5438 5435 5432 5429 5426 5424 5420 5417 5413 5410 5406 5403 5399 5396 5393 5390 5387 5384 5381 5378 5375 5372 5369 5366 5363 5360 5357 5355 5352 5350 5347
5608 5606 5603 5600 5597 5594 5591 5588 5584 5581 5577 5574 5570 5566 5562 5558 5554 5550 5545 5540 5535 5531 5527 5523 5520 5517 5515 5512 5510 5508 5506 5504 5502 5500 5497 5495 5492 5489 5486 5484 5481 5478 5476 5473 5471 5468 5465 5463 5460 5457 5454 5451 5449 5446 5443 5440 5436 5434 5431 5428 5424 5421 5417 5414 5411 5407 5403 5400 5396 5393 5390 5386 5383 5381 5377 5374 5371 5368 5366 5363 5360 5357 5354 5351 5349 5346
5607 5605 5602 5599 5596 5593 5590 5587 5583 5580 5577 5573 5570 5566 5561 5557 5553 5548 5544 5539 5535 5531 5527 5524 5521 5518 5516 5514 5512 5510 5508 5506 5503 5501 5499 5496 5493 5491 5488 5486 5483 5481 5478 5475 5472 5470 5467 5464 5461 5459 5456 5454 5451 5449 5446 5443 5439 5436 5432 5429 5426 5422 5418 5415 5411 5407 5404 5400 5397 5393 5390 5387 5383 5380 5377 5374 5371 5368 5366 5362 5359 5356 5353 5350 5347 5345
5606 5603 5601 5598 5595 5592 5589 5586 5583 5579 5576 5572 5569 5565 5561 5556 5552 5547 5543 5538 5534 5531 5528 5525 5522 5520 5517 5515 5513 5511 5509 5507 5505 5502 5500 5497 5495 5492 5490 5488 5485 5483 5480 5477 5474 5471 5469 5466 5463 5461 5458 5456 5453 5451 5448 5445 5442 5438 5434 5431 5427 5423 5420 5416 5412 5408 5404 5401 5397 5394 5390 5387 5384 5381 5377 5374 5371 5368 5365 5362 5359 5356 5353 5350 5347 5344